{"data":{"norad_id":66884,"epoch":"2026-09-20T12:38:56.037408Z","epoch_age_seconds":82013,"freshness":"FRESH","line1":"1 66884U 25283G   26263.52703747  .00018580  00000+0  55948-3 0  9991","line2":"2 66884  53.1577 195.6950 0001656  89.7672 270.3521 15.34410721 45720","mean_motion":15.34410721,"eccentricity":0.0001656,"inclination_deg":53.1577,"raan_deg":195.695,"arg_perigee_deg":89.7672,"mean_anomaly_deg":270.3521,"bstar":0.00055948,"rev_number":4572,"period_min":93.847102362627,"perigee_km":461.53853745434,"apogee_km":463.80421318825,"semimajor_km":6840.8083753213,"source":"CELESTRAK","updated_at":"2026-09-21T09:00:36.033169Z"}}